Regional Weather Roundup
Issued by NWS Sterling, VA

Home | Current Version | Previous Version | Graphics & Text | Print | Product List | Glossary On
Versions: 1 2 3 4 5 6 7 8 9 10 11 12 13 14 15 16 17 18 19 20 21 22 23 24 25 26 27 28 29 30 31 32 33 34 35 36 37 38 39 40 41 42 43 44 45 46 47 48 49 50
000
ASUS41 KLWX 240611
RWRLWX

REGIONAL WEATHER ROUNDUP
NATIONAL WEATHER SERVICE BALTIMORE MD/WASHINGTON DC
200 AM EDT MON JUL 24 2017

Note: "FAIR" indicates few or no clouds below 12,000 feet
with no significant weather and/or obstructions to visibility.
 TC=TEMPERATURE CELSIUS

 * =Non NWS site. Station does not report precipitation (e.g. rain,
    snow, etc.), thunder, or fog.

DCZ001-MDZ009-015-VAZ040>042-051-053>054-240700-
WASHINGTON METRO

CITY           SKY/WX    TMP DP  RH WIND       PRES   REMARKS
WASHINGTON NAT MOCLDY    74  72  93 N5        29.76S
DULLES         CLOUDY    73  72  96 CALM      29.75S
ANDREWS AFB    PTCLDY    73  71  94 SE5       29.76R
FT BELVOIR     CLOUDY    79  71  77 S7G20     29.75S
QUANTICO       LGT RAIN  80  71  74 SW14G24   29.75F
COLLEGE PARK*  PTCLDY    70  69  97 CALM      29.75R
LEESBURG*      CLOUDY    73  73 100 CALM      29.77R
MANASSAS*      PTCLDY    74  72  93 S3        29.76R
GAITHERSBURG*  CLOUDY    71  71 100 CALM      29.78R

$$

MDZ006>007-011-014-240700-
BALTIMORE METRO

CITY           SKY/WX    TMP DP  RH WIND       PRES   REMARKS
BWI AIRPORT    CLOUDY    73  72  96 VRB3      29.75R
MD SCIENCE CTR   N/A     75  73  93 MISG      29.76S
MARTIN STATE   CLOUDY    77  75  94 S7        29.76S
ANNAPOLIS      CLOUDY    74  73  97 CALM      29.74R
FORT MEADE*    CLOUDY    70  68  94 CALM      29.78R

$$

MDZ012-015-019>023-240700-
MARYLAND EASTERN SHORE

CITY           SKY/WX    TMP DP  RH WIND       PRES   REMARKS
OCEAN CITY     CLOUDY    78  74  87 W10       29.73F
SALISBURY      NOT AVBL
CAMBRIDGE*     PTCLDY    81  75  83 SW5G14    29.74S
EASTON*        CLOUDY    79  75  88 SW6       29.79R

$$

MDZ017>025-240700-
SOUTHERN MARYLAND

CITY           SKY/WX    TMP DP  RH WIND       PRES   REMARKS
PATUXENT RIVER PTCLDY    79  72  79 SW16G26   29.75S
ST INIGOES     LGT RAIN  79  72  79 SW22G31   29.73F
LEONARDTOWN*   CLOUDY    77  70  78 SW14G26   29.77S

$$

MDZ003>005-240700-
NORTH CENTRAL MARYLAND

CITY           SKY/WX    TMP DP  RH WIND       PRES   REMARKS
FREDERICK*     PTCLDY    73  73 100 CALM      29.78S FOG
HAGERSTOWN APT CLOUDY    72  70  93 E5        29.75F
WESTMINSTER*   LGT RAIN  72  72 100 E3        29.78S

$$

MDZ501>502-240700-
WESTERN MARYLAND

CITY           SKY/WX    TMP DP  RH WIND       PRES   REMARKS
OAKLAND*       PTCLDY    63  59  88 W9        29.85F
CUMBERLAND*    CLOUDY    77  66  69 SW13G20   29.80S

$$

VAZ025>031-240700-
SHENANDOAH VALLEY

CITY           SKY/WX    TMP DP  RH WIND       PRES   REMARKS
WINCHESTER*    CLOUDY    70  70 100 CALM      29.76S
FRONT ROYAL*   CLOUDY    75  68  78 CALM      29.76S
LURAY*         MOCLDY    73  68  83 SW3       29.79R
NEW MARKET*    PTCLDY    71  67  86 CALM      29.80R
STAUNTON*      CLOUDY    75  64  69 SW9       29.85R
WAYNESBORO*    MOCLDY    75  68  77 SW13G21   29.86R

$$

WVZ021-048>050-054>055-240700-
EASTERN WEST VIRGINIA PANHANDLE

CITY           SKY/WX    TMP DP  RH WIND       PRES   REMARKS
MARTINSBURG    PTCLDY    72  70  93 NW5       29.75S
PETERSBURG*    CLOUDY    80  65  60 SW6       29.82R

$$

VAZ036>039-050-240700-
CENTRAL FOOTHILLS

CITY           SKY/WX    TMP DP  RH WIND       PRES   REMARKS
CHARLOTTESVILL MOCLDY    80  69  69 SW8       29.79S
CULPEPER*      CLOUDY    79  72  79 SW8       29.77R
ORANGE*        MOCLDY    77  70  78 SW12G17   29.79R
GORDONSVILLE*  PTCLDY    78  69  74 SW16      29.78F
WARRENTON*     CLOUDY    79  69  70 SW9G16    29.76S

$$

VAZ055>057-240700-
NORTH AND CENTRAL PIEDMONT

CITY           SKY/WX    TMP DP  RH WIND       PRES   REMARKS
FREDERICKSBRG* PTCLDY    78  70  77 MISG      29.76F
STAFFORD*      CLOUDY    77  72  84 SW6G17    29.80F

$$

NCZ024-NYZ072-PAZ021-071-VAZ022-071-240700-
OTHER REGIONAL OBSERVATIONS

CITY           SKY/WX    TMP DP  RH WIND       PRES   REMARKS
NEW YORK CITY  CLOUDY    73  67  81 VRB6      29.86F
PHILADELPHIA   LGT RAIN  72  69  90 NE8       29.77F
PITTSBURGH     CLOUDY    69  68  96 W3        29.81S
ROANOKE        LGT RAIN  70  69  97 W8        29.92F
RICHMOND       CLOUDY    76  75  97 S3        29.80F
RALEIGH        MOCLDY    72  70  93 SW8       29.86F

$$

ANZ530>537-240700-
MARINE OBSERVATIONS

STATION/POSITION TIME  TEMP    WIND        PRES
                       AIR SEA DIR/SP/G
                 (UTC) (F)     (DEG/KT/KT) (MB)
THOMAS PT LIGHT  0600   77 82  290/  9/ 10   N/A
BALT KEY BRIDGE  0548          170/ 14/ 17 1006.8F
COVE POINT       0548          250/ 18/ 27 1007.7F
LEWISETTA        0548      86  280/ 18/ 24 1007.7S
SOLOMONS ISLAND  0548      84  240/ 21/ 25   N/A
PINEY POINT      0542          270/ 23/ 29   N/A

$$




USA.gov is the U.S. government's official web portal to all federal, state and local government web resources and services.